Terug naar catalogus

FENGYUN 1C DEB

ActiefSSO
NORAD 38727·DEBRIS·🇨🇳 China

Gelanceerd May 10, 1999 vanaf Taiyuan Satellite Launch Center

Loading…

Volgende Passages (komende 24 uur)

TLE

VerouderendSource: Space-Track

Epoch: Sep 9, 2026, 18:47 UTC

1 38727U 99025ETU 26252.78295520  .00001695  00000-0  10219-2 0  9993
2 38727  98.6157 241.3984 0101874 176.7048 307.4108 14.05388484756387

Volg FENGYUN 1C DEB in realtime met AllMySat

Download on the App Store